DW9493 Weather Reports


Display with metric or nautical units.
time (UTC)temp
F
wind
direction
speed
MPH
gust
MPH
rain 1hr
in
rain 24hr
in
rain mn
in
humidity
%
barometer
mb
20260902220828 74 48 1.0 7.0 0.00 0.00 0.00 32 1023.2
20260902215828 74 136 2.0 7.0 0.00 0.00 0.00 33 1023.2
20260902214827 74 32 1.0 12.0 0.00 0.00 0.00 32 1023.2
20260902213827 74 83 1.0 6.0 0.00 0.00 0.00 32 1023.4
20260902213304 74 25 1.0 6.0 0.00 0.00 0.00 32 1023.5
20260902211758 74 52 0.0 1.0 0.00 0.00 0.00 35 1023.6
20260902210756 74 43 0.0 1.0 0.00 0.00 0.00 32 1023.7
20260902205757 75 44 0.0 3.0 0.00 0.00 0.00 40 1023.9
20260902204757 75 107 0.0 2.0 0.00 0.00 0.00 31 1024.0
20260902203757 76 131 0.0 2.0 0.00 0.00 0.00 31 1024.2
20260902203240 75 317 1.0 3.0 0.00 0.00 0.00 29 1024.2
20260902201752 75 91 0.0 3.0 0.00 0.00 0.00 31 1024.5
20260902200751 75 32 2.0 8.0 0.00 0.00 0.00 29 1024.6
20260902195751 76 117 3.0 9.0 0.00 0.00 0.00 28 1024.6
20260902194752 77 354 3.0 11.0 0.00 0.00 0.00 28 1024.6
20260902193750 78 95 3.0 10.0 0.00 0.00 0.00 27 1024.6
20260902192750 77 117 3.0 9.0 0.00 0.00 0.00 28 1024.7
20260902191751 77 82 2.0 10.0 0.00 0.00 0.00 27 1025.0
20260902191204 76 8 2.0 7.0 0.00 0.00 0.00 27 1025.1
20260902185723 75 46 3.0 12.0 0.00 0.00 0.00 28 1025.2
20260902184721 75 32 3.0 9.0 0.00 0.00 0.00 28 1025.4
20260902184211 75 49 3.0 9.0 0.00 0.00 0.00 29 1025.4
20260902182719 75 37 4.0 14.0 0.00 0.00 0.00 28 1025.5
20260902182207 74 105 4.0 12.0 0.00 0.00 0.00 29 1025.6
20260902180710 76 36 2.0 8.0 0.00 0.00 0.00 27 1025.9
20260902175711 74 99 3.0 9.0 0.00 0.00 0.00 28 1026.0
20260902174711 74 65 3.0 13.0 0.00 0.00 0.00 28 1026.1
20260902173711 74 127 3.0 9.0 0.00 0.00 0.00 27 1026.1
20260902172712 74 103 3.0 10.0 0.00 0.00 0.00 29 1026.3
20260902171710 74 72 3.0 9.0 0.00 0.00 0.00 29 1026.3
20260902171146 74 88 3.0 8.0 0.00 0.00 0.00 29 1026.1
20260902165708 74 147 2.0 9.0 0.00 0.00 0.00 30 1026.3
20260902165153 74 82 2.0 9.0 0.00 0.00 0.00 31 1026.4
20260902164148 73 133 2.0 7.0 0.00 0.00 0.00 31 1026.4
20260902162709 74 43 0.0 5.0 0.00 0.00 0.00 33 1026.4
20260902161710 73 94 0.0 3.0 0.00 0.00 0.00 34 1026.5
20260902160709 71 103 1.0 6.0 0.00 0.00 0.00 34 1026.5
20260902155710 71 92 1.0 4.0 0.00 0.00 0.00 36 1026.6
20260902154652 70 110 1.0 7.0 0.00 0.00 0.00 38 1026.6
20260902153624 70 96 1.0 3.0 0.00 0.00 0.00 39 1026.5
20260902152623 69 135 1.0 4.0 0.00 0.00 0.00 38 1026.5
20260902151623 68 140 1.0 6.0 0.00 0.00 0.00 39 1026.5
20260902150623 68 93 1.0 3.0 0.00 0.00 0.00 38 1026.5
20260902145624 67 84 1.0 4.0 0.00 0.00 0.00 39 1026.4
20260902144621 66 95 1.0 3.0 0.00 0.00 0.00 42 1026.5
20260902143621 66 36 0.0 2.0 0.00 0.00 0.00 42 1026.3
20260902142621 66 61 0.0 1.0 0.00 0.00 0.00 47 1026.4
20260902141621 64 103 0.0 2.0 0.00 0.00 0.00 47 1026.3
20260902140621 63 64 0.0 1.0 0.00 0.00 0.00 53 1026.1
20260902135620 61 248 0.0 0.0 0.00 0.00 0.00 50 1026.1
20260902134621 60 248 0.0 0.0 0.00 0.00 0.00 54 1026.3
20260902134553 58 248 0.0 0.0 0.00 0.00 0.00 55 1026.3
20260902132605 56 248 0.0 1.0 0.00 0.00 0.00 56 1026.3
20260902132027 54 270 0.0 2.0 0.00 0.00 0.00 56 1026.1
20260902131502 54 319 0.0 3.0 0.00 0.00 0.00 55 1026.1
20260902125551 53 239 1.0 3.0 0.00 0.00 0.00 54 1026.1
20260902124551 53 284 0.0 2.0 0.00 0.00 0.00 53 1025.9
20260902124025 51 328 0.0 1.0 0.00 0.00 0.00 54 1025.9
20260902122549 51 208 0.0 1.0 0.00 0.00 0.00 57 1025.8
20260902122025 50 205 0.0 1.0 0.00 0.00 0.00 57 1025.6
20260902120551 50 205 0.0 0.0 0.00 0.00 0.00 61 1025.6
20260902120024 51 205 1.0 3.0 0.00 0.00 0.00 64 1025.6
20260902115026 50 255 0.0 1.0 0.00 0.00 0.00 67 1025.5
20260902113550 50 255 0.0 1.0 0.00 0.00 0.00 70 1025.5
20260902112549 51 255 0.0 1.0 0.00 0.00 0.00 70 1025.6
20260902111533 51 255 0.0 2.0 0.00 0.00 0.00 72 1025.6
20260902110513 51 313 0.0 2.0 0.00 0.00 0.00 71 1025.6
20260902105439 53 314 1.0 4.0 0.00 0.00 0.00 69 1025.6
20260902104439 53 315 1.0 4.0 0.00 0.00 0.00 69 1025.6
20260902103439 52 269 0.0 2.0 0.00 0.00 0.00 72 1025.6
20260902102438 51 250 0.0 1.0 0.00 0.00 0.00 75 1025.6
20260902101440 51 284 0.0 1.0 0.00 0.00 0.00 75 1025.5
20260902100438 51 315 0.0 3.0 0.00 0.00 0.00 76 1025.6
20260902095423 51 208 0.0 1.0 0.00 0.00 0.00 73 1025.8
20260902094420 52 265 0.0 0.0 0.00 0.00 0.00 73 1025.8
20260902093422 52 266 0.0 1.0 0.00 0.00 0.00 74 1025.8
20260902092421 53 252 0.0 1.0 0.00 0.00 0.00 71 1025.9
20260902091420 53 257 0.0 1.0 0.00 0.00 0.00 70 1025.9
20260902090421 53 242 0.0 1.0 0.00 0.00 0.00 70 1025.8
20260902085419 53 215 0.0 1.0 0.00 0.00 0.00 69 1025.9
20260902084859 53 259 0.0 1.0 0.00 0.00 0.00 70 1025.8
20260902083415 53 259 0.0 1.0 0.00 0.00 0.00 70 1025.9
20260902082415 53 260 0.0 1.0 0.00 0.00 0.00 70 1025.9
20260902081415 53 260 0.0 0.0 0.00 0.00 0.00 69 1025.9
20260902080411 54 260 0.0 0.0 0.00 0.01 0.00 67 1026.0
20260902075902 53 260 0.0 0.0 0.00 0.01 0.00 68 1025.9
20260902074411 54 260 0.0 1.0 0.00 0.01 0.00 66 1025.9
20260902073411 55 260 0.0 1.0 0.00 0.01 0.00 65 1025.8
20260902072353 54 276 0.0 0.0 0.00 0.02 0.00 65 1025.9
20260902071349 54 271 0.0 1.0 0.00 0.02 0.00 65 1025.9
20260902070349 55 272 0.0 1.0 0.00 0.02 0.00 65 1025.9
20260902065349 54 255 0.0 0.0 0.00 0.02 0.00 67 1026.0
20260902064349 54 255 0.0 1.0 0.00 0.03 0.00 66 1026.0
20260902063348 55 255 0.0 0.0 0.00 0.05 0.00 67 1026.0
20260902062825 55 255 0.0 1.0 0.00 0.08 0.00 64 1026.0
20260902061823 56 255 0.0 1.0 0.00 0.08 0.00 63 1026.0
20260902060349 56 311 0.0 2.0 0.00 0.08 0.00 65 1025.9
20260902055348 55 325 0.0 2.0 0.00 0.08 0.08 65 1026.0
20260902054347 55 308 0.0 1.0 0.00 0.08 0.08 67 1026.0
20260902053347 56 308 0.0 1.0 0.00 0.08 0.08 66 1026.0
20260902052347 56 288 0.0 1.0 0.00 0.08 0.08 65 1026.0
20260902051347 56 319 0.0 1.0 0.00 0.08 0.08 65 1025.9
20260902050825 58 319 0.0 1.0 0.00 0.08 0.08 62 1025.9
20260902045318 58 319 0.0 2.0 0.00 0.08 0.08 62 1026.0
20260902044318 59 319 1.0 3.0 0.00 0.08 0.08 60 1026.0
20260902043317 59 295 0.0 3.0 0.00 0.08 0.08 61 1026.1
20260902042317 58 287 0.0 2.0 0.00 0.08 0.08 62 1026.3
20260902041317 59 267 1.0 4.0 0.00 0.08 0.08 61 1026.3
20260902040317 59 311 4.0 9.0 0.00 0.08 0.08 61 1026.3
20260902035248 57 291 0.0 1.0 0.00 0.08 0.08 65 1026.3
20260902034247 58 291 0.0 1.0 0.00 0.08 0.08 64 1026.3
20260902034220 58 319 1.0 3.0 0.00 0.08 0.08 65 1026.3
20260902032247 58 313 1.0 3.0 0.00 0.08 0.08 66 1026.0
20260902031247 58 308 0.0 3.0 0.00 0.08 0.08 66 1026.0
20260902031206 57 323 0.0 2.0 0.00 0.08 0.08 68 1026.1
20260902025245 57 280 0.0 1.0 0.00 0.08 0.08 70 1026.0
20260902024245 58 267 0.0 1.0 0.00 0.08 0.08 66 1025.9
20260902023247 57 256 0.0 1.0 0.00 0.09 0.08 67 1025.9
20260902022246 58 285 0.0 1.0 0.00 0.10 0.08 67 1025.6
20260902021246 59 291 0.0 1.0 0.00 0.11 0.08 64 1025.4
20260902020246 60 319 0.0 0.0 0.00 0.11 0.08 62 1025.4
20260902015243 62 319 0.0 1.0 0.00 0.11 0.08 61 1025.2
20260902014241 63 319 0.0 1.0 0.00 0.11 0.08 61 1025.2
20260902013241 65 319 0.0 2.0 0.00 0.11 0.08 56 1025.2
20260902012241 66 245 1.0 2.0 0.00 0.11 0.08 52 1025.2
20260902011720 65 257 0.0 3.0 0.00 0.11 0.08 57 1025.4
20260902010723 65 333 0.0 1.0 0.00 0.11 0.08 60 1025.4
20260902005716 65 333 0.0 1.0 0.00 0.11 0.08 63 1025.2
20260902004240 68 333 0.0 1.0 0.00 0.11 0.08 57 1025.2
20260902003218 70 333 0.0 1.0 0.00 0.11 0.08 47 1025.2
20260902002151 71 70 0.0 1.0 0.00 0.11 0.08 42 1025.2
20260902001149 71 70 0.0 1.0 0.00 0.11 0.08 41 1025.1
20260902000149 71 318 0.0 2.0 0.00 0.11 0.08 41 1025.2
20260901235149 71 79 0.0 2.0 0.00 0.11 0.08 39 1025.1
20260901234637 72 32 0.0 2.0 0.00 0.11 0.08 39 1025.1
20260901233148 72 81 0.0 4.0 0.00 0.11 0.08 39 1025.1
20260901232128 71 56 0.0 3.0 0.00 0.11 0.08 40 1025.1
20260901231118 71 86 1.0 3.0 0.00 0.11 0.08 40 1025.0
20260901230039 71 52 2.0 7.0 0.00 0.11 0.08 38 1025.0
20260901225039 73 17 1.0 5.0 0.00 0.11 0.08 39 1025.0
20260901224039 73 34 0.0 3.0 0.00 0.11 0.08 38 1025.0
20260901223040 73 314 1.0 4.0 0.00 0.11 0.08 33 1025.0
20260901222039 72 331 1.0 3.0 0.00 0.11 0.08 34 1025.0